Index of /msuact/inc

[ICO]NameLast modifiedSizeDescription

[DIR]Parent Directory  -  
[TXT]ChkLoginAdminmember.php10-Mar-2009 17:28 630  
[TXT]ChkLoginAdminroot.php10-Mar-2009 17:28 823  
[TXT]ChkLoginAdmintech.php10-Mar-2009 17:28 636  
[TXT]ChkLoginLibrary.php10-Mar-2009 17:28 749  
[TXT]CloseDB.php10-Mar-2009 17:28 104  
[TXT]ConnDB.php10-Mar-2009 17:28 472  
[TXT]GregorianToJD2.php10-Mar-2009 17:28 363  
[TXT]_dse.howto.txt10-Mar-2009 17:28 277  
[TXT]_tablelister.howto.txt10-Mar-2009 17:28 2.0K 
[TXT]alerts.php10-Mar-2009 17:28 817  
[TXT]aliceos_tmqp.php05-Mar-2019 03:02 172  
[TXT]aliceos_tmqs.php10-Mar-2009 17:28 2.7K 
[TXT]arr_filter_remnull.php10-Mar-2009 17:28 301  
[DIR]barcode/19-Oct-2016 21:06 -  
[TXT]barcodeval_get.php10-Mar-2009 17:28 159  
[TXT]barcodeval_set.php10-Mar-2009 17:28 172  
[TXT]bitem_get_checkoutstr.php10-Mar-2009 17:28 1.2K 
[TXT]bitem_pricehelp.php10-Mar-2009 17:28 517  
[TXT]blowfish.php10-Mar-2009 17:28 8.1K 
[TXT]blowfish_defaultkey.ini.php10-Mar-2009 17:28 18K 
[TXT]c.inc.php02-Apr-2016 17:11 699  
[TXT]c.inc.php.tp10-Mar-2009 17:28 692  
[DIR]captcha/17-Aug-2019 17:32 -  
[TXT]captcha_e.php10-Mar-2009 17:28 686  
[TXT]captcha_s.php10-Mar-2009 17:28 401  
[TXT]config.inc.php10-Jan-2017 14:56 13K 
[TXT]config.inc.php.tp10-Mar-2009 17:47 12K 
[TXT]config.inc.sv.php10-Mar-2009 17:44 31  
[TXT]config.inc.sv.php.tp10-Mar-2009 17:28 31  
[TXT]ddl.php10-Mar-2009 17:28 1.1K 
[TXT]ddx.php10-Mar-2009 17:28 275  
[TXT]ddxl.php10-Mar-2009 17:28 2.0K 
[TXT]dse.exec.php02-Apr-2016 17:19 41  
[TXT]dse.php10-Mar-2009 17:28 4.2K 
[TXT]dse_doval.php10-Mar-2009 17:28 921  
[TXT]dse_strapval.php10-Mar-2009 17:28 175  
[TXT]dspmarc.php10-Mar-2009 17:28 1.1K 
[TXT]explodenewline.php10-Mar-2009 17:28 323  
[TXT]explodewithquote.php10-Mar-2009 17:28 811  
[TXT]feedcreator.class.php10-Mar-2009 17:28 58K 
[TXT]file_get_contents.php10-Mar-2009 17:28 271  
[TXT]filelogs.php10-Mar-2009 17:28 1.5K 
[TXT]fixform_editor.php10-Mar-2009 17:28 972  
[TXT]fixform_editor_i.php10-Mar-2009 17:28 9.8K 
[TXT]fixform_editor_save.php10-Mar-2009 17:28 2.0K 
[TXT]fixform_tablelister.php10-Mar-2009 17:28 9.0K 
[TXT]foot.php26-Jul-2019 01:23 2.0K 
[TXT]form_lib_login.php10-Mar-2009 17:28 3.1K 
[TXT]form_member_login.php10-Mar-2009 17:28 2.1K 
[TXT]form_pickdate.php10-Mar-2009 17:28 2.6K 
[TXT]form_pickdate_str.php10-Mar-2009 17:28 757  
[TXT]form_pickdatetime.php10-Mar-2009 17:28 552  
[TXT]form_pickdatetime_len.php10-Mar-2009 17:28 726  
[TXT]form_pickdt_get.php10-Mar-2009 17:28 695  
[TXT]form_pickdt_len_get.php10-Mar-2009 17:28 468  
[TXT]form_quickedit.php10-Mar-2009 17:28 6.9K 
[TXT]form_root_login.php10-Mar-2009 17:28 1.5K 
[TXT]frm_genlist.php10-Mar-2009 17:28 690  
[TXT]frm_globalupload.php10-Mar-2009 17:28 372  
[TXT]frm_libsite.php10-Mar-2009 17:28 939  
[TXT]frm_metadatacate.php25-Nov-2011 15:02 839  
[TXT]frm_restype.php10-Mar-2009 17:28 854  
[TXT]fso_file_importmelt.php10-Mar-2009 17:28 1.0K 
[TXT]fso_file_write.php10-Mar-2009 17:28 694  
[TXT]fso_image_fixsize.php10-Mar-2009 17:28 1.2K 
[TXT]fso_img_rotate.php10-Mar-2009 17:28 2.6K 
[TXT]fso_listfile.php10-Mar-2009 17:28 568  
[TXT]getLine.php10-Mar-2009 17:28 1.2K 
[TXT]get_content.php10-Mar-2009 17:28 948  
[TXT]get_coverbyinfo.php10-Mar-2009 17:28 3.4K 
[TXT]get_def.php10-Mar-2009 17:28 1.7K 
[TXT]get_fttypecode.php10-Mar-2009 17:28 560  
[TXT]get_fturl.php10-Mar-2009 17:28 566  
[TXT]get_itemmodule.php10-Mar-2009 17:28 702  
[TXT]get_itemplace_name.php10-Mar-2009 17:28 575  
[TXT]get_library_name.php10-Mar-2009 17:28 443  
[TXT]get_libsite_name.php26-Nov-2009 21:08 731  
[TXT]get_media_type.php10-Mar-2009 17:28 151  
[TXT]get_member_name.php10-Mar-2009 17:28 487  
[TXT]get_mid_status.php10-Mar-2009 17:28 225  
[TXT]getdcnum.php10-Mar-2009 17:28 222  
[TXT]getduedecis.php10-Mar-2009 17:28 2.6K 
[TXT]getlang.php10-Mar-2009 17:28 359  
[TXT]getlcnum.php10-Mar-2009 17:28 222  
[TXT]getlibsiterule.php10-Mar-2009 17:28 280  
[TXT]getlibsitevars.php10-Mar-2009 17:28 478  
[TXT]getval.php10-Mar-2009 17:28 512  
[TXT]head.php04-Apr-2016 15:34 1.7K 
[TXT]head1.php-del02-Apr-2016 17:19 66K 
[TXT]hidemarc.php10-Mar-2009 17:28 1.0K 
[TXT]html.inc.php10-Mar-2009 17:28 393  
[TXT]html.php10-Mar-2009 17:28 257  
[TXT]html_dialog.php10-Mar-2009 17:28 358  
[TXT]html_displayitem.php10-Mar-2009 17:28 3.5K 
[TXT]html_displaymarc.php10-Mar-2009 17:28 1.7K 
[TXT]html_displaymedia.php10-Mar-2009 17:28 7.6K 
[TXT]html_displayrqitem.php10-Mar-2009 17:28 589  
[TXT]html_displayserial.php10-Mar-2009 17:28 2.7K 
[TXT]html_getbymid.php26-Sep-2011 10:03 3.9K 
[TXT]html_graph.php10-Mar-2009 17:28 751  
[TXT]html_guidebtn.php10-Mar-2009 17:28 3.5K 
[TXT]html_htmlarea_gen.php10-Mar-2009 17:28 2.1K 
[TXT]html_htmlareajs.php10-Mar-2009 17:28 1.0K 
[TXT]html_label.php10-Mar-2009 17:28 950  
[TXT]html_librarymenu.php10-Mar-2009 17:28 2.8K 
[TXT]html_rows0_str.php10-Mar-2009 17:28 271  
[TXT]html_start.php10-Mar-2009 17:28 11K 
[TXT]html_tooltip.php10-Mar-2009 17:28 328  
[TXT]html_tooltip_int.php10-Mar-2009 17:28 4.8K 
[TXT]html_xpbtn.php10-Mar-2009 17:28 825  
[TXT]html_xptab.php10-Mar-2009 17:28 1.5K 
[TXT]iconvth.php10-Mar-2009 17:28 549  
[TXT]iconvutf.php10-Mar-2009 17:28 806  
[TXT]index_catepathbymid.php10-Mar-2009 17:28 1.2K 
[TXT]index_fticon.php18-Mar-2009 14:03 4.8K 
[TXT]index_ftremove.php10-Mar-2009 17:28 626  
[TXT]index_indexft.php10-Mar-2009 17:28 1.0K 
[TXT]index_init_INDEXWORDDB.php10-Mar-2009 17:28 324  
[TXT]index_markword.php10-Mar-2009 17:28 266  
[TXT]index_reindex.php18-Mar-2016 09:31 3.4K 
[TXT]index_remove.php10-Mar-2009 17:28 288  
[TXT]indexword_insert.php10-Mar-2009 17:28 629  
[TXT]isUTF8.php10-Mar-2009 17:28 227  
[TXT]lang_control.php10-Mar-2009 17:28 582  
[TXT]libfunc.inc.php10-Mar-2009 17:28 172  
[TXT]library_gotpermission.php10-Mar-2009 17:28 385  
[TXT]loginchk_lib.php10-Mar-2009 17:28 626  
[TXT]loginchk_root.php10-Mar-2009 17:28 422  
[TXT]marc_export.php10-Mar-2009 17:28 1.2K 
[TXT]marc_getauth.php10-Mar-2009 17:28 295  
[TXT]marc_getcalln.php10-Mar-2009 17:28 604  
[TXT]marc_getinfofrom_uglymarc.php10-Mar-2009 17:28 448  
[TXT]marc_getmidcalln.php10-Mar-2009 17:28 341  
[TXT]marc_getserialcalln.php10-Mar-2009 17:28 320  
[TXT]marc_getserialdat.php10-Mar-2009 17:28 334  
[TXT]marc_getsubfields.php10-Mar-2009 17:28 334  
[TXT]marc_gettitle.php01-Jul-2013 09:41 505  
[TXT]marc_getyea.php10-Mar-2009 17:28 389  
[TXT]marc_importfromfile.php10-Mar-2009 17:28 4.7K 
[TXT]marc_melt.php10-Mar-2009 17:28 2.0K 
[TXT]member_isoverduing.php10-Mar-2009 17:28 506  
[TXT]member_pic_spath.php10-Mar-2009 17:28 318  
[TXT]member_pic_url.php10-Mar-2009 17:28 441  
[TXT]member_showfine.php10-Mar-2009 17:28 2.9K 
[TXT]member_showhold.php10-Mar-2009 17:28 5.5K 
[TXT]member_showinfo.php10-Mar-2009 17:28 1.5K 
[TXT]member_showlonginfo.php10-Mar-2009 17:28 3.9K 
[TXT]member_showrequest.php10-Mar-2009 17:28 3.9K 
[TXT]member_showrequestlist.php10-Mar-2009 17:28 2.8K 
[TXT]mn_lib.php27-Nov-2009 17:59 5.6K 
[TXT]mn_root.php10-Mar-2009 17:28 6.8K 
[TXT]mn_web.php10-Mar-2009 17:28 3.4K 
[TXT]nocache.php10-Mar-2009 17:28 199  
[TXT]ordr.php10-Mar-2009 17:28 788  
[TXT]ordr_geturl.php10-Mar-2009 17:28 504  
[TXT]pageengine.php10-Mar-2009 17:28 3.8K 
[TXT]pagesection.php10-Mar-2009 17:28 3.7K 
[TXT]pcache_e.php04-Apr-2016 15:11 1.2K 
[TXT]pcache_s.php23-May-2011 15:59 3.6K 
[DIR]pdf/25-Jun-2013 10:32 -  
[TXT]percent_cal.php10-Mar-2009 17:28 214  
[TXT]printr.php10-Mar-2009 17:28 287  
[TXT]randid.php10-Mar-2009 17:28 96  
[TXT]redir.php10-Mar-2009 17:28 154  
[TXT]rem2space.php10-Mar-2009 17:28 144  
[TXT]removenewline.php10-Mar-2009 17:28 479  
[TXT]res_brief_dsp.php10-Mar-2009 17:28 475  
[TXT]res_cov_dsp.php10-Mar-2009 17:28 937  
[DIR]rss2html/25-Jun-2013 10:32 -  
[TXT]scol.php10-Mar-2009 17:28 283  
[TXT]serial_get_volstr.php10-Mar-2009 17:28 737  
[TXT]serial_rebuild_serialstr.php10-Mar-2009 17:28 365  
[TXT]sessionval_get.php10-Mar-2009 17:28 317  
[TXT]sessionval_set.php10-Mar-2009 17:28 281  
[TXT]show_mediaicon.php10-Mar-2009 17:28 4.8K 
[TXT]show_mediaicon_long.php29-Sep-2009 21:55 4.9K 
[TXT]sql_gotallliblimit_bylibmember.php10-Mar-2009 17:28 258  
[TXT]ssql.php10-Mar-2009 17:28 1.5K 
[TXT]ssql_for_raw.php10-Mar-2009 17:28 1.4K 
[TXT]ssql_rembool.php10-Mar-2009 17:28 162  
[TXT]stat_add.php10-Mar-2009 17:28 605  
[TXT]stathist_add.php10-Mar-2009 17:28 358  
[TXT]statordr_add.php10-Mar-2009 17:28 506  
[TXT]str_fixw.php10-Mar-2009 17:28 246  
[TXT]str_html2rgb.php10-Mar-2009 17:28 753  
[TXT]str_preformat.php10-Mar-2009 17:28 156  
[TXT]str_remjump_numeric.php10-Mar-2009 17:28 882  
[TXT]str_remspecialsign.php10-Mar-2009 17:28 1.1K 
[TXT]str_replace2.php10-Mar-2009 17:28 452  
[TXT]str_tojsescape.php10-Mar-2009 17:28 119  
[TXT]strpos_count.php10-Mar-2009 17:28 201  
[TXT]thaidatestr.php10-Mar-2009 17:28 297  
[TXT]tmq.php01-Jul-2013 09:41 437  
[TXT]tmq_dump.php10-Mar-2009 17:28 175  
[TXT]tmq_dump2.php10-Mar-2009 17:28 623  
[TXT]tmq_fetch_array.php10-Mar-2009 17:28 290  
[TXT]tmq_list_tables.php10-Mar-2009 17:28 235  
[TXT]tmq_num_rows.php10-Mar-2009 17:28 67  
[TXT]tmqp.php10-Mar-2009 17:28 4.6K 
[TXT]usoundex_USOUNDEXCTRLARRAY.php10-Mar-2009 17:28 412  
[TXT]usoundex_get.php10-Mar-2009 17:28 331  
[TXT]walkbackweekclose.php10-Mar-2009 17:28 1.0K 
[DIR]xls_csv_parser/25-Jun-2013 10:32 -  
[TXT]ymd.inc.php10-Mar-2009 17:28 2.0K 
[TXT]ymd_datestr.php26-Sep-2011 10:04 1.3K 
[TXT]ymd_mkdt.php10-Mar-2009 17:28 212  
[TXT]ymd_mkymd.php10-Mar-2009 17:28 168  

Apache/2.2.15 (CentOS) Server at news.msu.ac.th Port 80